Location: Milton Keynes
(52.0316°N, 0.7531°W)
Time: 09:25:20
(UTC+00:00)

ISS - Pass Details

Date: 26 September 2022
Orbit: 414 x 421 km, 51.6° (Epoch: 02 December)

Event Time Altitude Azimuth Distance (km) Brightness Sun altitude
Rises 20:02:39 0° 275° (W) 2,372 2.1 -11.6°
Reaches altitude 10° 20:04:45 10° 274° (W) 1,506 0.5 -11.9°
Maximum altitude 20:08:08 81° 188° (S) 430 -3.8 -12.4°
Enters shadow 20:10:06 23° 102° (ESE) 942 -2.6 -12.7°
